Tracking 21094 objects as of 14-Aug-2020
HD Live streaming from Space Station
objects crossing your sky now
Track the most recent launched group of Starlink satellites

SL-12 DEB

Track SL-12 DEB now!
10-day predictions


NORAD ID: 26813
Int'l Code: 1989-001P
Perigee: 636.4 km
Apogee: 4,422.0 km
Inclination: 65.3 °
Period: 139.3 minutes
Semi major axis: 8900 km
RCS: 0.1185 m2 (medium)
Launch date: January 10, 1989
Source: Commonwealth of Independent States (former USSR) (CIS)
Launch site: TYURATAM MISSILE AND SPACE COMPLEX (TTMTR)

Note: This is SATELLITE DEBRIS
aabbcc
Your satellite tracking list
Your tracking list is empty




NASA's NSSDC Master Catalog

Two Line Element Set (TLE):
1 26813U 89001P   20226.15946886 +.00025135 +00000-0 +31330-1 0  9994
2 26813 065.3001 141.8230 2126727 137.3084 241.4324 10.33961677039891
Source of the keplerian elements: AFSPC